owner,sensor,date,latitude,longitude,vertical_datum,sea_water_temperature,qcFlag 
COMPS,ioos:station:USF.COMPS:C10:1,2015-12-01T01:05:00Z,27.1690,-82.9260,-1.0,23.566,2 
COMPS,ioos:station:USF.COMPS:C10:1,2015-12-01T01:35:00Z,27.1690,-82.9260,-1.0,23.54,2 
COMPS,ioos:station:USF.COMPS:C10:1,2015-12-01T05:05:00Z,27.1690,-82.9260,-1.0,23.529,2 
COMPS,ioos:station:USF.COMPS:C10:1,2015-12-01T05:35:00Z,27.1690,-82.9260,-1.0,23.531,2 
COMPS,ioos:station:USF.COMPS:C10:1,2015-12-01T06:05:00Z,27.1690,-82.9260,-1.0,23.538,2 
COMPS,ioos:station:USF.COMPS:C10:1,2015-12-01T06:35:00Z,27.1690,-82.9260,-1.0,23.552,2 
COMPS,ioos:station:USF.COMPS:C10:1,2015-12-01T07:05:00Z,27.1690,-82.9260,-1.0,23.537,2 
COMPS,ioos:station:USF.COMPS:C10:1,2015-12-01T07:35:00Z,27.1690,-82.9260,-1.0,23.562,2 
COMPS,ioos:station:USF.COMPS:C10:1,2015-12-01T08:05:00Z,27.1690,-82.9260,-1.0,23.573,2 
COMPS,ioos:station:USF.COMPS:C10:1,2015-12-01T08:35:00Z,27.1690,-82.9260,-1.0,23.555,2 
COMPS,ioos:station:USF.COMPS:C10:1,2015-12-01T09:05:00Z,27.1690,-82.9260,-1.0,23.545,2 
COMPS,ioos:station:USF.COMPS:C10:1,2015-12-01T09:35:00Z,27.1690,-82.9260,-1.0,23.544,2 
COMPS,ioos:station:USF.COMPS:C10:1,2015-12-01T10:05:00Z,27.1690,-82.9260,-1.0,23.556,2 
COMPS,ioos:station:USF.COMPS:C10:1,2015-12-01T10:35:00Z,27.1690,-82.9260,-1.0,23.562,2 
COMPS,ioos:station:USF.COMPS:C10:1,2015-12-01T11:05:00Z,27.1690,-82.9260,-1.0,23.575,2 
COMPS,ioos:station:USF.COMPS:C10:1,2015-12-01T11:35:00Z,27.1690,-82.9260,-1.0,23.557,2 
COMPS,ioos:station:USF.COMPS:C10:1,2015-12-01T12:05:00Z,27.1690,-82.9260,-1.0,23.541,2 
COMPS,ioos:station:USF.COMPS:C10:1,2015-12-01T12:35:00Z,27.1690,-82.9260,-1.0,23.548,2 
COMPS,ioos:station:USF.COMPS:C10:1,2015-12-01T13:05:00Z,27.1690,-82.9260,-1.0,23.519,2 
COMPS,ioos:station:USF.COMPS:C10:1,2015-12-01T13:35:00Z,27.1690,-82.9260,-1.0,23.526,2 
COMPS,ioos:station:USF.COMPS:C10:1,2015-12-01T14:05:00Z,27.1690,-82.9260,-1.0,23.541,2 
COMPS,ioos:station:USF.COMPS:C10:1,2015-12-01T14:35:00Z,27.1690,-82.9260,-1.0,23.545,2 
COMPS,ioos:station:USF.COMPS:C10:1,2015-12-01T15:05:00Z,27.1690,-82.9260,-1.0,23.575,2 
COMPS,ioos:station:USF.COMPS:C10:1,2015-12-01T15:35:00Z,27.1690,-82.9260,-1.0,23.54,2 
COMPS,ioos:station:USF.COMPS:C10:1,2015-12-01T16:05:00Z,27.1690,-82.9260,-1.0,23.569,2 
COMPS,ioos:station:USF.COMPS:C10:1,2015-12-01T16:35:00Z,27.1690,-82.9260,-1.0,23.622,2 
COMPS,ioos:station:USF.COMPS:C10:1,2015-12-01T17:05:00Z,27.1690,-82.9260,-1.0,23.722,2 
COMPS,ioos:station:USF.COMPS:C10:1,2015-12-01T17:35:00Z,27.1690,-82.9260,-1.0,23.832,2 
COMPS,ioos:station:USF.COMPS:C10:1,2015-12-01T18:05:00Z,27.1690,-82.9260,-1.0,23.882,2 
COMPS,ioos:station:USF.COMPS:C10:1,2015-12-01T18:35:00Z,27.1690,-82.9260,-1.0,23.959,2 
COMPS,ioos:station:USF.COMPS:C10:1,2015-12-01T19:05:00Z,27.1690,-82.9260,-1.0,24.057,2 
COMPS,ioos:station:USF.COMPS:C10:1,2015-12-01T19:35:00Z,27.1690,-82.9260,-1.0,24.1,2 
COMPS,ioos:station:USF.COMPS:C10:1,2015-12-01T20:05:00Z,27.1690,-82.9260,-1.0,24.128,2 
COMPS,ioos:station:USF.COMPS:C10:1,2015-12-01T20:35:00Z,27.1690,-82.9260,-1.0,24.217,2 
COMPS,ioos:station:USF.COMPS:C10:1,2015-12-01T21:05:00Z,27.1690,-82.9260,-1.0,24.285,2 
COMPS,ioos:station:USF.COMPS:C10:1,2015-12-01T21:35:00Z,27.1690,-82.9260,-1.0,24.402,2 
COMPS,ioos:station:USF.COMPS:C10:1,2015-12-01T22:05:00Z,27.1690,-82.9260,-1.0,24.377,2 
COMPS,ioos:station:USF.COMPS:C10:1,2015-12-01T22:35:00Z,27.1690,-82.9260,-1.0,24.401,2 
COMPS,ioos:station:USF.COMPS:C10:1,2015-12-01T23:05:00Z,27.1690,-82.9260,-1.0,24.416,2 
COMPS,ioos:station:USF.COMPS:C10:1,2015-12-01T23:35:00Z,27.1690,-82.9260,-1.0,24.367,2 
COMPS,ioos:station:USF.COMPS:C10:1,2015-12-02T00:05:00Z,27.1690,-82.9260,-1.0,24.289,2 
COMPS,ioos:station:USF.COMPS:C10:1,2015-12-02T00:35:00Z,27.1690,-82.9260,-1.0,24.262,2 
COMPS,ioos:station:USF.COMPS:C10:1,2015-12-02T01:05:00Z,27.1690,-82.9260,-1.0,24.148,2 
COMPS,ioos:station:USF.COMPS:C10:1,2015-12-02T01:35:00Z,27.1690,-82.9260,-1.0,24.088,2 
COMPS,ioos:station:USF.COMPS:C10:1,2015-12-02T05:05:00Z,27.1690,-82.9260,-1.0,24.024,2 
COMPS,ioos:station:USF.COMPS:C10:1,2015-12-02T05:35:00Z,27.1690,-82.9260,-1.0,24.009,2 
COMPS,ioos:station:USF.COMPS:C10:1,2015-12-02T06:05:00Z,27.1690,-82.9260,-1.0,23.991,2 
COMPS,ioos:station:USF.COMPS:C10:1,2015-12-02T06:35:00Z,27.1690,-82.9260,-1.0,23.97,2 
COMPS,ioos:station:USF.COMPS:C10:1,2015-12-02T07:05:00Z,27.1690,-82.9260,-1.0,23.956,2 
COMPS,ioos:station:USF.COMPS:C10:1,2015-12-02T07:35:00Z,27.1690,-82.9260,-1.0,23.908,2 
COMPS,ioos:station:USF.COMPS:C10:1,2015-12-02T08:05:00Z,27.1690,-82.9260,-1.0,23.862,2 
COMPS,ioos:station:USF.COMPS:C10:1,2015-12-02T08:35:00Z,27.1690,-82.9260,-1.0,23.836,2 
COMPS,ioos:station:USF.COMPS:C10:1,2015-12-02T09:05:00Z,27.1690,-82.9260,-1.0,23.821,2 
COMPS,ioos:station:USF.COMPS:C10:1,2015-12-02T09:35:00Z,27.1690,-82.9260,-1.0,23.803,2 
COMPS,ioos:station:USF.COMPS:C10:1,2015-12-02T10:05:00Z,27.1690,-82.9260,-1.0,23.783,2 
COMPS,ioos:station:USF.COMPS:C10:1,2015-12-02T10:35:00Z,27.1690,-82.9260,-1.0,23.768,2 
COMPS,ioos:station:USF.COMPS:C10:1,2015-12-02T11:05:00Z,27.1690,-82.9260,-1.0,23.768,2 
COMPS,ioos:station:USF.COMPS:C10:1,2015-12-02T11:35:00Z,27.1690,-82.9260,-1.0,23.761,2 
COMPS,ioos:station:USF.COMPS:C10:1,2015-12-02T12:05:00Z,27.1690,-82.9260,-1.0,23.753,2 
COMPS,ioos:station:USF.COMPS:C10:1,2015-12-02T12:35:00Z,27.1690,-82.9260,-1.0,23.749,2 
COMPS,ioos:station:USF.COMPS:C10:1,2015-12-02T13:05:00Z,27.1690,-82.9260,-1.0,23.747,2 
COMPS,ioos:station:USF.COMPS:C10:1,2015-12-02T13:35:00Z,27.1690,-82.9260,-1.0,23.75,2 
COMPS,ioos:station:USF.COMPS:C10:1,2015-12-02T14:05:00Z,27.1690,-82.9260,-1.0,23.765,2 
COMPS,ioos:station:USF.COMPS:C10:1,2015-12-02T14:35:00Z,27.1690,-82.9260,-1.0,23.774,2 
COMPS,ioos:station:USF.COMPS:C10:1,2015-12-02T15:05:00Z,27.1690,-82.9260,-1.0,23.784,2 
COMPS,ioos:station:USF.COMPS:C10:1,2015-12-02T15:35:00Z,27.1690,-82.9260,-1.0,23.8,2 
COMPS,ioos:station:USF.COMPS:C10:1,2015-12-02T16:05:00Z,27.1690,-82.9260,-1.0,23.856,2 
COMPS,ioos:station:USF.COMPS:C10:1,2015-12-02T16:35:00Z,27.1690,-82.9260,-1.0,23.862,2 
COMPS,ioos:station:USF.COMPS:C10:1,2015-12-02T17:05:00Z,27.1690,-82.9260,-1.0,23.922,2 
COMPS,ioos:station:USF.COMPS:C10:1,2015-12-02T17:35:00Z,27.1690,-82.9260,-1.0,23.974,2 
COMPS,ioos:station:USF.COMPS:C10:1,2015-12-02T18:05:00Z,27.1690,-82.9260,-1.0,24.056,2 
COMPS,ioos:station:USF.COMPS:C10:1,2015-12-02T18:35:00Z,27.1690,-82.9260,-1.0,24.098,2 
COMPS,ioos:station:USF.COMPS:C10:1,2015-12-02T19:05:00Z,27.1690,-82.9260,-1.0,24.164,2 
COMPS,ioos:station:USF.COMPS:C10:1,2015-12-02T19:35:00Z,27.1690,-82.9260,-1.0,24.227,2 
COMPS,ioos:station:USF.COMPS:C10:1,2015-12-02T20:05:00Z,27.1690,-82.9260,-1.0,24.291,2 
COMPS,ioos:station:USF.COMPS:C10:1,2015-12-02T20:35:00Z,27.1690,-82.9260,-1.0,24.389,2 
COMPS,ioos:station:USF.COMPS:C10:1,2015-12-02T21:05:00Z,27.1690,-82.9260,-1.0,24.416,2 
COMPS,ioos:station:USF.COMPS:C10:1,2015-12-02T21:35:00Z,27.1690,-82.9260,-1.0,24.546,2 
COMPS,ioos:station:USF.COMPS:C10:1,2015-12-02T22:05:00Z,27.1690,-82.9260,-1.0,24.62,2 
COMPS,ioos:station:USF.COMPS:C10:1,2015-12-02T22:35:00Z,27.1690,-82.9260,-1.0,24.54,2 
COMPS,ioos:station:USF.COMPS:C10:1,2015-12-02T23:05:00Z,27.1690,-82.9260,-1.0,24.462,2 
COMPS,ioos:station:USF.COMPS:C10:1,2015-12-02T23:35:00Z,27.1690,-82.9260,-1.0,24.445,2 
COMPS,ioos:station:USF.COMPS:C10:1,2015-12-03T00:05:00Z,27.1690,-82.9260,-1.0,24.39,2 
COMPS,ioos:station:USF.COMPS:C10:1,2015-12-03T00:35:00Z,27.1690,-82.9260,-1.0,24.327,2 
COMPS,ioos:station:USF.COMPS:C10:1,2015-12-03T05:05:00Z,27.1690,-82.9260,-1.0,24.018,2 
COMPS,ioos:station:USF.COMPS:C10:1,2015-12-03T05:35:00Z,27.1690,-82.9260,-1.0,23.996,2 
COMPS,ioos:station:USF.COMPS:C10:1,2015-12-03T06:05:00Z,27.1690,-82.9260,-1.0,23.976,2 
COMPS,ioos:station:USF.COMPS:C10:1,2015-12-03T06:35:00Z,27.1690,-82.9260,-1.0,23.959,2 
COMPS,ioos:station:USF.COMPS:C10:1,2015-12-03T07:05:00Z,27.1690,-82.9260,-1.0,23.923,2 
COMPS,ioos:station:USF.COMPS:C10:1,2015-12-03T07:35:00Z,27.1690,-82.9260,-1.0,23.884,2 
COMPS,ioos:station:USF.COMPS:C10:1,2015-12-03T08:05:00Z,27.1690,-82.9260,-1.0,23.867,2 
COMPS,ioos:station:USF.COMPS:C10:1,2015-12-03T08:35:00Z,27.1690,-82.9260,-1.0,23.86,2 
COMPS,ioos:station:USF.COMPS:C10:1,2015-12-03T09:05:00Z,27.1690,-82.9260,-1.0,23.842,2 
COMPS,ioos:station:USF.COMPS:C10:1,2015-12-03T09:35:00Z,27.1690,-82.9260,-1.0,23.878,2 
COMPS,ioos:station:USF.COMPS:C10:1,2015-12-03T10:05:00Z,27.1690,-82.9260,-1.0,23.891,2 
COMPS,ioos:station:USF.COMPS:C10:1,2015-12-03T10:35:00Z,27.1690,-82.9260,-1.0,23.874,2 
COMPS,ioos:station:USF.COMPS:C10:1,2015-12-03T11:05:00Z,27.1690,-82.9260,-1.0,23.893,2 
COMPS,ioos:station:USF.COMPS:C10:1,2015-12-03T11:35:00Z,27.1690,-82.9260,-1.0,23.924,2 
COMPS,ioos:station:USF.COMPS:C10:1,2015-12-03T12:05:00Z,27.1690,-82.9260,-1.0,23.98,2 
COMPS,ioos:station:USF.COMPS:C10:1,2015-12-03T12:35:00Z,27.1690,-82.9260,-1.0,24.015,2 
COMPS,ioos:station:USF.COMPS:C10:1,2015-12-03T13:05:00Z,27.1690,-82.9260,-1.0,24.008,2 
COMPS,ioos:station:USF.COMPS:C10:1,2015-12-03T13:35:00Z,27.1690,-82.9260,-1.0,24.05,2 
COMPS,ioos:station:USF.COMPS:C10:1,2015-12-03T14:05:00Z,27.1690,-82.9260,-1.0,24.116,2 
COMPS,ioos:station:USF.COMPS:C10:1,2015-12-03T14:35:00Z,27.1690,-82.9260,-1.0,24.125,2 
COMPS,ioos:station:USF.COMPS:C10:1,2015-12-03T15:05:00Z,27.1690,-82.9260,-1.0,24.136,2 
COMPS,ioos:station:USF.COMPS:C10:1,2015-12-03T15:35:00Z,27.1690,-82.9260,-1.0,24.133,2 
COMPS,ioos:station:USF.COMPS:C10:1,2015-12-03T16:05:00Z,27.1690,-82.9260,-1.0,24.125,2 
COMPS,ioos:station:USF.COMPS:C10:1,2015-12-03T16:35:00Z,27.1690,-82.9260,-1.0,24.116,2 
COMPS,ioos:station:USF.COMPS:C10:1,2015-12-03T17:05:00Z,27.1690,-82.9260,-1.0,24.13,2 
COMPS,ioos:station:USF.COMPS:C10:1,2015-12-03T17:35:00Z,27.1690,-82.9260,-1.0,24.107,2 
COMPS,ioos:station:USF.COMPS:C10:1,2015-12-03T18:05:00Z,27.1690,-82.9260,-1.0,24.092,2 
COMPS,ioos:station:USF.COMPS:C10:1,2015-12-03T18:35:00Z,27.1690,-82.9260,-1.0,24.085,2 
COMPS,ioos:station:USF.COMPS:C10:1,2015-12-03T19:05:00Z,27.1690,-82.9260,-1.0,24.071,2 
COMPS,ioos:station:USF.COMPS:C10:1,2015-12-03T19:35:00Z,27.1690,-82.9260,-1.0,24.057,2 
COMPS,ioos:station:USF.COMPS:C10:1,2015-12-03T21:05:00Z,27.1690,-82.9260,-1.0,24.063,2 
COMPS,ioos:station:USF.COMPS:C10:1,2015-12-03T21:35:00Z,27.1690,-82.9260,-1.0,24.083,2 
COMPS,ioos:station:USF.COMPS:C10:1,2015-12-03T22:05:00Z,27.1690,-82.9260,-1.0,24.06,2 
COMPS,ioos:station:USF.COMPS:C10:1,2015-12-03T22:35:00Z,27.1690,-82.9260,-1.0,24.063,2 
COMPS,ioos:station:USF.COMPS:C10:1,2015-12-03T23:05:00Z,27.1690,-82.9260,-1.0,24.079,2 
COMPS,ioos:station:USF.COMPS:C10:1,2015-12-03T23:35:00Z,27.1690,-82.9260,-1.0,24.065,2 
COMPS,ioos:station:USF.COMPS:C10:1,2015-12-04T01:05:00Z,27.1690,-82.9260,-1.0,24.019,2 
COMPS,ioos:station:USF.COMPS:C10:1,2015-12-04T01:35:00Z,27.1690,-82.9260,-1.0,24.001,2 
COMPS,ioos:station:USF.COMPS:C10:1,2015-12-04T05:05:00Z,27.1690,-82.9260,-1.0,23.943,2 
COMPS,ioos:station:USF.COMPS:C10:1,2015-12-04T05:35:00Z,27.1690,-82.9260,-1.0,23.931,2 
COMPS,ioos:station:USF.COMPS:C10:1,2015-12-04T06:05:00Z,27.1690,-82.9260,-1.0,23.922,2 
COMPS,ioos:station:USF.COMPS:C10:1,2015-12-04T06:35:00Z,27.1690,-82.9260,-1.0,23.909,2 
COMPS,ioos:station:USF.COMPS:C10:1,2015-12-04T07:05:00Z,27.1690,-82.9260,-1.0,23.878,2 
COMPS,ioos:station:USF.COMPS:C10:1,2015-12-04T07:35:00Z,27.1690,-82.9260,-1.0,23.929,2 
COMPS,ioos:station:USF.COMPS:C10:1,2015-12-04T08:05:00Z,27.1690,-82.9260,-1.0,23.939,2 
COMPS,ioos:station:USF.COMPS:C10:1,2015-12-04T08:35:00Z,27.1690,-82.9260,-1.0,23.925,2 
COMPS,ioos:station:USF.COMPS:C10:1,2015-12-04T09:05:00Z,27.1690,-82.9260,-1.0,23.942,2 
COMPS,ioos:station:USF.COMPS:C10:1,2015-12-04T09:35:00Z,27.1690,-82.9260,-1.0,23.951,2 
COMPS,ioos:station:USF.COMPS:C10:1,2015-12-04T10:05:00Z,27.1690,-82.9260,-1.0,23.933,2 
COMPS,ioos:station:USF.COMPS:C10:1,2015-12-04T10:35:00Z,27.1690,-82.9260,-1.0,23.924,2 
COMPS,ioos:station:USF.COMPS:C10:1,2015-12-04T12:05:00Z,27.1690,-82.9260,-1.0,23.891,2 
COMPS,ioos:station:USF.COMPS:C10:1,2015-12-04T12:35:00Z,27.1690,-82.9260,-1.0,23.875,2 
COMPS,ioos:station:USF.COMPS:C10:1,2015-12-04T14:05:00Z,27.1690,-82.9260,-1.0,23.852,2 
COMPS,ioos:station:USF.COMPS:C10:1,2015-12-04T14:35:00Z,27.1690,-82.9260,-1.0,23.854,2 
COMPS,ioos:station:USF.COMPS:C10:1,2015-12-04T15:05:00Z,27.1690,-82.9260,-1.0,23.852,2 
COMPS,ioos:station:USF.COMPS:C10:1,2015-12-04T15:35:00Z,27.1690,-82.9260,-1.0,23.849,2 
COMPS,ioos:station:USF.COMPS:C10:1,2015-12-04T16:05:00Z,27.1690,-82.9260,-1.0,23.853,2 
COMPS,ioos:station:USF.COMPS:C10:1,2015-12-04T16:35:00Z,27.1690,-82.9260,-1.0,23.848,2 
COMPS,ioos:station:USF.COMPS:C10:1,2015-12-04T17:05:00Z,27.1690,-82.9260,-1.0,23.853,2 
COMPS,ioos:station:USF.COMPS:C10:1,2015-12-04T17:35:00Z,27.1690,-82.9260,-1.0,23.859,2 
COMPS,ioos:station:USF.COMPS:C10:1,2015-12-04T20:05:00Z,27.1690,-82.9260,-1.0,23.913,2 
COMPS,ioos:station:USF.COMPS:C10:1,2015-12-04T20:35:00Z,27.1690,-82.9260,-1.0,23.912,2 
COMPS,ioos:station:USF.COMPS:C10:1,2015-12-04T21:05:00Z,27.1690,-82.9260,-1.0,23.901,2 
COMPS,ioos:station:USF.COMPS:C10:1,2015-12-04T21:35:00Z,27.1690,-82.9260,-1.0,23.897,2 
COMPS,ioos:station:USF.COMPS:C10:1,2015-12-04T22:05:00Z,27.1690,-82.9260,-1.0,23.881,2 
COMPS,ioos:station:USF.COMPS:C10:1,2015-12-04T22:35:00Z,27.1690,-82.9260,-1.0,23.874,2 
COMPS,ioos:station:USF.COMPS:C10:1,2015-12-05T05:05:00Z,27.1690,-82.9260,-1.0,23.839,2 
COMPS,ioos:station:USF.COMPS:C10:1,2015-12-05T05:35:00Z,27.1690,-82.9260,-1.0,23.834,2 
COMPS,ioos:station:USF.COMPS:C10:1,2015-12-05T06:05:00Z,27.1690,-82.9260,-1.0,23.838,2 
COMPS,ioos:station:USF.COMPS:C10:1,2015-12-05T06:35:00Z,27.1690,-82.9260,-1.0,23.838,2 
COMPS,ioos:station:USF.COMPS:C10:1,2015-12-05T07:05:00Z,27.1690,-82.9260,-1.0,23.844,2 
COMPS,ioos:station:USF.COMPS:C10:1,2015-12-05T07:35:00Z,27.1690,-82.9260,-1.0,23.853,2 
COMPS,ioos:station:USF.COMPS:C10:1,2015-12-05T15:05:00Z,27.1690,-82.9260,-1.0,23.885,2 
COMPS,ioos:station:USF.COMPS:C10:1,2015-12-05T15:35:00Z,27.1690,-82.9260,-1.0,23.861,2 
COMPS,ioos:station:USF.COMPS:C10:1,2015-12-05T17:05:00Z,27.1690,-82.9260,-1.0,23.873,2 
COMPS,ioos:station:USF.COMPS:C10:1,2015-12-05T17:35:00Z,27.1690,-82.9260,-1.0,23.896,2 
COMPS,ioos:station:USF.COMPS:C10:1,2015-12-05T19:05:00Z,27.1690,-82.9260,-1.0,23.932,2 
COMPS,ioos:station:USF.COMPS:C10:1,2015-12-05T19:35:00Z,27.1690,-82.9260,-1.0,23.949,2 
COMPS,ioos:station:USF.COMPS:C10:1,2015-12-05T21:05:00Z,27.1690,-82.9260,-1.0,23.924,2 
COMPS,ioos:station:USF.COMPS:C10:1,2015-12-05T21:35:00Z,27.1690,-82.9260,-1.0,23.92,2 
COMPS,ioos:station:USF.COMPS:C10:1,2015-12-05T22:05:00Z,27.1690,-82.9260,-1.0,23.904,2 
COMPS,ioos:station:USF.COMPS:C10:1,2015-12-05T22:35:00Z,27.1690,-82.9260,-1.0,23.889,2 
COMPS,ioos:station:USF.COMPS:C10:1,2015-12-05T23:05:00Z,27.1690,-82.9260,-1.0,23.884,2 
COMPS,ioos:station:USF.COMPS:C10:1,2015-12-05T23:35:00Z,27.1690,-82.9260,-1.0,23.867,2 
COMPS,ioos:station:USF.COMPS:C10:1,2015-12-06T00:05:00Z,27.1690,-82.9260,-1.0,23.863,2 
COMPS,ioos:station:USF.COMPS:C10:1,2015-12-06T00:35:00Z,27.1690,-82.9260,-1.0,23.853,2 
COMPS,ioos:station:USF.COMPS:C10:1,2015-12-06T01:05:00Z,27.1690,-82.9260,-1.0,23.858,2 
COMPS,ioos:station:USF.COMPS:C10:1,2015-12-06T01:35:00Z,27.1690,-82.9260,-1.0,23.845,2 
COMPS,ioos:station:USF.COMPS:C10:1,2015-12-06T02:05:00Z,27.1690,-82.9260,-1.0,23.84,2 
COMPS,ioos:station:USF.COMPS:C10:1,2015-12-06T02:35:00Z,27.1690,-82.9260,-1.0,23.832,2 
COMPS,ioos:station:USF.COMPS:C10:1,2015-12-06T03:05:00Z,27.1690,-82.9260,-1.0,23.819,2 
COMPS,ioos:station:USF.COMPS:C10:1,2015-12-06T03:35:00Z,27.1690,-82.9260,-1.0,23.825,2 
COMPS,ioos:station:USF.COMPS:C10:1,2015-12-06T05:05:00Z,27.1690,-82.9260,-1.0,23.814,2 
COMPS,ioos:station:USF.COMPS:C10:1,2015-12-06T05:35:00Z,27.1690,-82.9260,-1.0,23.81,2 
COMPS,ioos:station:USF.COMPS:C10:1,2015-12-06T06:05:00Z,27.1690,-82.9260,-1.0,23.802,2 
COMPS,ioos:station:USF.COMPS:C10:1,2015-12-06T06:35:00Z,27.1690,-82.9260,-1.0,23.797,2 
COMPS,ioos:station:USF.COMPS:C10:1,2015-12-06T08:05:00Z,27.1690,-82.9260,-1.0,23.778,2 
COMPS,ioos:station:USF.COMPS:C10:1,2015-12-06T08:35:00Z,27.1690,-82.9260,-1.0,23.787,2 
COMPS,ioos:station:USF.COMPS:C10:1,2015-12-06T09:05:00Z,27.1690,-82.9260,-1.0,23.779,2 
COMPS,ioos:station:USF.COMPS:C10:1,2015-12-06T09:35:00Z,27.1690,-82.9260,-1.0,23.771,2 
COMPS,ioos:station:USF.COMPS:C10:1,2015-12-06T10:05:00Z,27.1690,-82.9260,-1.0,23.784,2 
COMPS,ioos:station:USF.COMPS:C10:1,2015-12-06T10:35:00Z,27.1690,-82.9260,-1.0,23.783,2 
COMPS,ioos:station:USF.COMPS:C10:1,2015-12-06T13:05:00Z,27.1690,-82.9260,-1.0,23.767,2 
COMPS,ioos:station:USF.COMPS:C10:1,2015-12-06T13:35:00Z,27.1690,-82.9260,-1.0,23.773,2 
COMPS,ioos:station:USF.COMPS:C10:1,2015-12-06T14:05:00Z,27.1690,-82.9260,-1.0,23.764,2 
COMPS,ioos:station:USF.COMPS:C10:1,2015-12-06T14:35:00Z,27.1690,-82.9260,-1.0,23.752,2 
COMPS,ioos:station:USF.COMPS:C10:1,2015-12-06T15:05:00Z,27.1690,-82.9260,-1.0,23.741,2 
COMPS,ioos:station:USF.COMPS:C10:1,2015-12-06T15:35:00Z,27.1690,-82.9260,-1.0,23.735,2 
COMPS,ioos:station:USF.COMPS:C10:1,2015-12-06T16:05:00Z,27.1690,-82.9260,-1.0,23.733,2 
COMPS,ioos:station:USF.COMPS:C10:1,2015-12-06T16:35:00Z,27.1690,-82.9260,-1.0,23.732,2 
COMPS,ioos:station:USF.COMPS:C10:1,2015-12-06T18:05:00Z,27.1690,-82.9260,-1.0,23.764,2 
COMPS,ioos:station:USF.COMPS:C10:1,2015-12-06T18:35:00Z,27.1690,-82.9260,-1.0,23.767,2 
COMPS,ioos:station:USF.COMPS:C10:1,2015-12-06T21:05:00Z,27.1690,-82.9260,-1.0,23.795,2 
COMPS,ioos:station:USF.COMPS:C10:1,2015-12-06T21:35:00Z,27.1690,-82.9260,-1.0,23.787,2 
COMPS,ioos:station:USF.COMPS:C10:1,2015-12-06T22:05:00Z,27.1690,-82.9260,-1.0,23.773,2 
COMPS,ioos:station:USF.COMPS:C10:1,2015-12-06T22:35:00Z,27.1690,-82.9260,-1.0,23.766,2 
COMPS,ioos:station:USF.COMPS:C10:1,2015-12-06T23:05:00Z,27.1690,-82.9260,-1.0,23.761,2 
COMPS,ioos:station:USF.COMPS:C10:1,2015-12-06T23:35:00Z,27.1690,-82.9260,-1.0,23.76,2 
COMPS,ioos:station:USF.COMPS:C10:1,2015-12-07T00:05:00Z,27.1690,-82.9260,-1.0,23.748,2 
COMPS,ioos:station:USF.COMPS:C10:1,2015-12-07T00:35:00Z,27.1690,-82.9260,-1.0,23.748,2 
COMPS,ioos:station:USF.COMPS:C10:1,2015-12-07T01:05:00Z,27.1690,-82.9260,-1.0,23.744,2 
COMPS,ioos:station:USF.COMPS:C10:1,2015-12-07T01:35:00Z,27.1690,-82.9260,-1.0,23.742,2 
COMPS,ioos:station:USF.COMPS:C10:1,2015-12-07T02:05:00Z,27.1690,-82.9260,-1.0,23.732,2 
COMPS,ioos:station:USF.COMPS:C10:1,2015-12-07T02:35:00Z,27.1690,-82.9260,-1.0,23.72,2 
COMPS,ioos:station:USF.COMPS:C10:1,2015-12-07T05:05:00Z,27.1690,-82.9260,-1.0,23.688,2 
COMPS,ioos:station:USF.COMPS:C10:1,2015-12-07T05:35:00Z,27.1690,-82.9260,-1.0,23.678,2 
COMPS,ioos:station:USF.COMPS:C10:1,2015-12-07T06:05:00Z,27.1690,-82.9260,-1.0,23.636,2 
COMPS,ioos:station:USF.COMPS:C10:1,2015-12-07T06:35:00Z,27.1690,-82.9260,-1.0,23.631,2 
COMPS,ioos:station:USF.COMPS:C10:1,2015-12-07T08:05:00Z,27.1690,-82.9260,-1.0,23.639,2 
COMPS,ioos:station:USF.COMPS:C10:1,2015-12-07T08:35:00Z,27.1690,-82.9260,-1.0,23.619,2 
COMPS,ioos:station:USF.COMPS:C10:1,2015-12-07T13:05:00Z,27.1690,-82.9260,-1.0,23.641,2 
COMPS,ioos:station:USF.COMPS:C10:1,2015-12-07T13:35:00Z,27.1690,-82.9260,-1.0,23.64,2 
COMPS,ioos:station:USF.COMPS:C10:1,2015-12-07T15:05:00Z,27.1690,-82.9260,-1.0,23.63,2 
COMPS,ioos:station:USF.COMPS:C10:1,2015-12-07T15:35:00Z,27.1690,-82.9260,-1.0,23.628,2 
COMPS,ioos:station:USF.COMPS:C10:1,2015-12-07T20:05:00Z,27.1690,-82.9260,-1.0,23.624,2 
COMPS,ioos:station:USF.COMPS:C10:1,2015-12-07T20:35:00Z,27.1690,-82.9260,-1.0,23.615,2 
COMPS,ioos:station:USF.COMPS:C10:1,2015-12-07T21:05:00Z,27.1690,-82.9260,-1.0,23.614,2 
COMPS,ioos:station:USF.COMPS:C10:1,2015-12-07T21:35:00Z,27.1690,-82.9260,-1.0,23.612,2 
COMPS,ioos:station:USF.COMPS:C10:1,2015-12-07T22:05:00Z,27.1690,-82.9260,-1.0,23.602,2 
COMPS,ioos:station:USF.COMPS:C10:1,2015-12-07T22:35:00Z,27.1690,-82.9260,-1.0,23.621,2 
COMPS,ioos:station:USF.COMPS:C10:1,2015-12-07T23:05:00Z,27.1690,-82.9260,-1.0,23.634,2 
COMPS,ioos:station:USF.COMPS:C10:1,2015-12-07T23:35:00Z,27.1690,-82.9260,-1.0,23.63,2 
COMPS,ioos:station:USF.COMPS:C10:1,2015-12-08T05:05:00Z,27.1690,-82.9260,-1.0,23.524,2 
COMPS,ioos:station:USF.COMPS:C10:1,2015-12-08T05:35:00Z,27.1690,-82.9260,-1.0,23.511,2 
COMPS,ioos:station:USF.COMPS:C10:1,2015-12-08T07:05:00Z,27.1690,-82.9260,-1.0,23.459,2 
COMPS,ioos:station:USF.COMPS:C10:1,2015-12-08T07:35:00Z,27.1690,-82.9260,-1.0,23.453,2 
COMPS,ioos:station:USF.COMPS:C10:1,2015-12-08T08:05:00Z,27.1690,-82.9260,-1.0,23.451,2 
COMPS,ioos:station:USF.COMPS:C10:1,2015-12-08T08:35:00Z,27.1690,-82.9260,-1.0,23.441,2 
COMPS,ioos:station:USF.COMPS:C10:1,2015-12-08T09:05:00Z,27.1690,-82.9260,-1.0,23.434,2 
COMPS,ioos:station:USF.COMPS:C10:1,2015-12-08T09:35:00Z,27.1690,-82.9260,-1.0,23.438,2 
COMPS,ioos:station:USF.COMPS:C10:1,2015-12-08T10:05:00Z,27.1690,-82.9260,-1.0,23.414,2 
COMPS,ioos:station:USF.COMPS:C10:1,2015-12-08T10:35:00Z,27.1690,-82.9260,-1.0,23.396,2 
COMPS,ioos:station:USF.COMPS:C10:1,2015-12-08T14:05:00Z,27.1690,-82.9260,-1.0,23.35,2 
COMPS,ioos:station:USF.COMPS:C10:1,2015-12-08T14:35:00Z,27.1690,-82.9260,-1.0,23.342,2 
COMPS,ioos:station:USF.COMPS:C10:1,2015-12-08T17:05:00Z,27.1690,-82.9260,-1.0,23.314,2 
COMPS,ioos:station:USF.COMPS:C10:1,2015-12-08T17:35:00Z,27.1690,-82.9260,-1.0,23.301,2 
COMPS,ioos:station:USF.COMPS:C10:1,2015-12-08T20:05:00Z,27.1690,-82.9260,-1.0,23.258,2 
COMPS,ioos:station:USF.COMPS:C10:1,2015-12-08T20:35:00Z,27.1690,-82.9260,-1.0,23.239,2 
COMPS,ioos:station:USF.COMPS:C10:1,2015-12-08T22:05:00Z,27.1690,-82.9260,-1.0,23.188,2 
COMPS,ioos:station:USF.COMPS:C10:1,2015-12-08T22:35:00Z,27.1690,-82.9260,-1.0,23.183,2 
COMPS,ioos:station:USF.COMPS:C10:1,2015-12-08T23:05:00Z,27.1690,-82.9260,-1.0,23.201,2 
COMPS,ioos:station:USF.COMPS:C10:1,2015-12-08T23:35:00Z,27.1690,-82.9260,-1.0,23.19,2 
COMPS,ioos:station:USF.COMPS:C10:1,2015-12-09T00:05:00Z,27.1690,-82.9260,-1.0,23.19,2 
COMPS,ioos:station:USF.COMPS:C10:1,2015-12-09T00:35:00Z,27.1690,-82.9260,-1.0,23.187,2 
COMPS,ioos:station:USF.COMPS:C10:1,2015-12-09T05:05:00Z,27.1690,-82.9260,-1.0,23.244,2 
COMPS,ioos:station:USF.COMPS:C10:1,2015-12-09T05:35:00Z,27.1690,-82.9260,-1.0,23.226,2 
COMPS,ioos:station:USF.COMPS:C10:1,2015-12-09T06:05:00Z,27.1690,-82.9260,-1.0,23.221,2 
COMPS,ioos:station:USF.COMPS:C10:1,2015-12-09T06:35:00Z,27.1690,-82.9260,-1.0,23.205,2 
COMPS,ioos:station:USF.COMPS:C10:1,2015-12-09T07:05:00Z,27.1690,-82.9260,-1.0,23.196,2 
COMPS,ioos:station:USF.COMPS:C10:1,2015-12-09T07:35:00Z,27.1690,-82.9260,-1.0,23.181,2 
COMPS,ioos:station:USF.COMPS:C10:1,2015-12-09T08:05:00Z,27.1690,-82.9260,-1.0,23.175,2 
COMPS,ioos:station:USF.COMPS:C10:1,2015-12-09T08:35:00Z,27.1690,-82.9260,-1.0,23.161,2 
COMPS,ioos:station:USF.COMPS:C10:1,2015-12-09T09:05:00Z,27.1690,-82.9260,-1.0,23.167,2 
COMPS,ioos:station:USF.COMPS:C10:1,2015-12-09T09:35:00Z,27.1690,-82.9260,-1.0,23.161,2 
COMPS,ioos:station:USF.COMPS:C10:1,2015-12-09T10:05:00Z,27.1690,-82.9260,-1.0,23.156,2 
COMPS,ioos:station:USF.COMPS:C10:1,2015-12-09T10:35:00Z,27.1690,-82.9260,-1.0,23.155,2 
COMPS,ioos:station:USF.COMPS:C10:1,2015-12-09T11:05:00Z,27.1690,-82.9260,-1.0,23.158,2 
COMPS,ioos:station:USF.COMPS:C10:1,2015-12-09T11:35:00Z,27.1690,-82.9260,-1.0,23.145,2 
COMPS,ioos:station:USF.COMPS:C10:1,2015-12-09T12:05:00Z,27.1690,-82.9260,-1.0,23.152,2 
COMPS,ioos:station:USF.COMPS:C10:1,2015-12-09T12:35:00Z,27.1690,-82.9260,-1.0,23.144,2 
COMPS,ioos:station:USF.COMPS:C10:1,2015-12-09T13:05:00Z,27.1690,-82.9260,-1.0,23.161,2 
COMPS,ioos:station:USF.COMPS:C10:1,2015-12-09T13:35:00Z,27.1690,-82.9260,-1.0,23.149,2 
COMPS,ioos:station:USF.COMPS:C10:1,2015-12-09T14:05:00Z,27.1690,-82.9260,-1.0,23.149,2 
COMPS,ioos:station:USF.COMPS:C10:1,2015-12-09T14:35:00Z,27.1690,-82.9260,-1.0,23.141,2 
COMPS,ioos:station:USF.COMPS:C10:1,2015-12-09T15:05:00Z,27.1690,-82.9260,-1.0,23.146,2 
COMPS,ioos:station:USF.COMPS:C10:1,2015-12-09T15:35:00Z,27.1690,-82.9260,-1.0,23.155,2 
COMPS,ioos:station:USF.COMPS:C10:1,2015-12-09T16:05:00Z,27.1690,-82.9260,-1.0,23.152,2 
COMPS,ioos:station:USF.COMPS:C10:1,2015-12-09T16:35:00Z,27.1690,-82.9260,-1.0,23.183,2 